Regional Weather Roundup
Issued by NWS

Home | Current Version | Previous Version | Text Only | Print | Product List | Glossary On
Versions: 1 2 3 4 5 6 7 8 9 10 11 12 13 14 15 16 17 18 19 20 21 22 23 24 25 26 27 28 29 30 31 32 33 34 35 36 37 38 39 40 41 42 43 44 45 46 47 48 49 50
997
ASUS43 KIND 061659
RWRIN

WEATHER ROUNDUP FOR INDIANA
NATIONAL WEATHER SERVICE INDIANAPOLIS IN
100 PM EDT FRI MAY 06 2016

NOTE: "FAIR" INDICATES FEW OR NO CLOUDS BELOW 12,000 FEET WITH NO
SIGNIFICANT WEATHER AND/OR OBSTRUCTIONS TO VISIBILITY.

* - STATION DOES NOT REPORT WEATHER SUCH AS PRECIPITATION OR FOG.

+ - STATION NOT QUALITY CONTROLLED BY THE NATIONAL WEATHER SERVICE.
    USE DATA WITH CAUTION...ESPECIALLY DEWPOINT AND RELATIVE
    HUMIDITY OBSERVATIONS.

INZ001>003-010>013-019-020-061800-
NORTHWEST INDIANA

CITY           SKY/WX    TMP DP  RH WIND       PRES   REMARKS
GARY /AIRPORT/ MOSUNNY   72  48  43 W9        29.98F
RENSSELAER +   SUNNY     70  36  28 W8        30.00F

$$

LMZ046-743>745-061800-
SOUTHERN LAKE MICHIGAN

STATION/POSITION TIME  TEMP    WIND        PRES    WAVE
                       AIR SEA DIR/SP/G            HT
                 (UTC) (F)     (DEG/KT/KT) (MB)    (FT)
BURNS HARBOR     1600   61     290/  2/  2 1016.3F
MICHIGAN CITY    1600   59     220/ 10/ 10   N/A

$$

INZ004-005-014>016-021>024-061800-
NORTH CENTRAL INDIANA

CITY           SKY/WX    TMP DP  RH WIND       PRES   REMARKS
ELKHART        SUNNY     66  48  52 W6        29.98F
GOSHEN         SUNNY     65  46  50 SW7       29.98F
SOUTH BEND     SUNNY     67  41  38 NW8       29.98F

$$

INZ006>009-017-018-025>027-061800-
NORTHEAST INDIANA

CITY           SKY/WX    TMP DP  RH WIND       PRES   REMARKS
ANGOLA *+        N/A     66  39  37 SW8       29.97F
FORT WAYNE     MOSUNNY   66  43  43 W9        29.99F

$$

INZ028-029-035-036-043>045-051>053-061800-
WEST CENTRAL INDIANA

CITY           SKY/WX    TMP DP  RH WIND       PRES   REMARKS
CRAWFORDSVL +  SUNNY     64  46  51 W8        30.02F
GREENCASTLE +  SUNNY     64  46  52 N8        30.03F
LAFAYETTE      SUNNY     67  42  40 W10       30.00F
TERRE HAUTE    SUNNY     68  43  40 NW8G17    30.03F

$$

INZ030>032-037>040-046>048-054>057-064-065-061800-
CENTRAL INDIANA

CITY           SKY/WX    TMP DP  RH WIND       PRES   REMARKS
ANDERSON       SUNNY     63  41  45 N9        30.02F
COLUMBUS       SUNNY     64  46  52 N9        30.02F
INDIANAPOLIS   MOSUNNY   66  41  40 N9        30.01F
-EAGLE CREEK   SUNNY     66  41  40 N14       30.01F
KOKOMO *+      SUNNY     64  45  48 NW12      30.00F
SHELBYVILLE    SUNNY     67  45  45 NW9       30.01F

$$

INZ033-034-041-042-049-050-058-059-061800-
EAST CENTRAL INDIANA

CITY           SKY/WX    TMP DP  RH WIND       PRES   REMARKS
MUNCIE         SUNNY     65  43  44 NW6       30.00F

$$

INZ060-061-067>069-081>083-085>088-061800-
SOUTHWEST INDIANA

CITY           SKY/WX    TMP DP  RH WIND       PRES   REMARKS
EVANSVILLE     MOSUNNY   68  44  42 N12       30.05F
HUNTINGBURG *+ MOSUNNY   66  46  48 NW8       30.04F

$$

INZ062-063-066-070>080-084-089>092-061800-
SOUTH CENTRAL AND SOUTHEAST INDIANA

CITY           SKY/WX    TMP DP  RH WIND       PRES   REMARKS
BLOOMINGTON    SUNNY     68  42  38 N10       30.02F
MADISON *+     SUNNY     66  34  30 NW9       30.03F
SEYMOUR +      SUNNY     68  45  42 NW9       30.02F

$$





USA.gov is the U.S. government's official web portal to all federal, state and local government web resources and services.